SKYSAT-A

Last updated on Tue Jul 01 2025 00:02:29 GMT+0000 (Coordinated Universal Time)

1 39418U 13066C 25181.02494486 .00002333 00000+0 14596-3 0 9993 2 39418 97.4329 236.1886 0024463 90.2809 270.1224 15.10131015635282
UTC large
Height (km)
Speed (km/s)
/
Latitude / Longitude
Inclination (degrees)
Orbital Period (minutes)
Azimuth
Elevation
Range (km)
Doppler Factor

Next 0 passes for location: London (51.5072 / 0.1276)

Sorry there are no passes over London.